Sigonella, Italy

5:36 AM CEST on September 01, 2016 (GMT +0200)
Sigonella Mil

Weather History for LICZ - October, 2012

Change the Weather History Date:

Monday, October 22, 2012

  Actual Average Record
Temperature  
Mean Temperature 68 °F -  
Max Temperature 80 °F 71 °F 86 °F (2001)
Min Temperature 57 °F 51 °F 48 °F (2007)
Cooling Degree Days 4    
Growing Degree Days 18 (Base 50)    
Moisture  
Dew Point 63 °F    
Average Humidity 87    
Maximum Humidity 100    
Minimum Humidity 55    
Precipitation  
Precipitation 0.00 in 0.07 in - ()
Sea Level Pressure  
Sea Level Pressure 30.03 in    
Wind  
Wind Speed 3 mph ()    
Max Wind Speed 8 mph    
Max Gust Speed -    
Visibility 6.1 miles    
Events      
Averages and records for this station are not official NWS values.
T = Trace of Precipitation, MM = Missing Value Source: Averaged Metar Reports

Daily Weather History Graph

Daily Weather History Graph

Search for Another Location

Airport or City:

Trip Planner

Search our weather history database for the weather conditions in past years. The results will help you decide how hot, cold, wet, or windy it might be!

Date:

Astronomy

Oct. 22, 2012 Rise Set
Actual Time 7:15 AM CEST 6:13 PM CEST
Civil Twilight 6:48 AM CEST 6:40 PM CEST
Nautical Twilight 6:18 AM CEST 7:10 PM CEST
Astronomical Twilight 5:47 AM CEST 7:40 PM CEST
Moon 2:02 PM CEST (10/22) No Moon Set
Length of Visible Light 11h 51m
Length of Day
10h 58m
First Quarter, 53% of the Moon is Illuminated
Oct 22
First Quarter
Oct 29
Full
Nov 7
Last Quarter
Nov 13
New
Nov 20
First Quarter

Hourly Weather History & Observations

Time (CEST) Temp. Heat Index Dew Point Humidity Pressure Visibility Wind Dir Wind Speed Gust Speed Precip Events Conditions
12:55 AM 59.0 °F - 59.0 °F 100% 30.04 in - North - - N/A   Clear
1:55 AM 59.0 °F - 59.0 °F 100% 30.04 in - North - - N/A   Clear
2:00 AM 59 °F - 59 °F 98% 30.05 in 8 mi Calm Calm - -  
2:55 AM 57.2 °F - 57.2 °F 100% 30.04 in - North - - N/A   Clear
3:55 AM 59.0 °F - 59.0 °F 100% 30.04 in - North - - N/A   Clear
4:55 AM 59.0 °F - 59.0 °F 100% 30.04 in - North - - N/A   Clear
5:00 AM 59 °F - 59 °F 100% 30.06 in 4 mi West 5.8 mph - -   Mist
5:55 AM 57.2 °F - 57.2 °F 100% 30.04 in - North - - N/A   Clear
6:55 AM 59.0 °F - 59.0 °F 100% 30.04 in - North - - N/A   Partly Cloudy
7:55 AM 57.2 °F - 57.2 °F 100% 30.06 in - North - - N/A   Partly Cloudy
8:00 AM 57 °F - 57 °F 100% 30.07 in 4 mi WNW 2.3 mph - -   Mist
8:55 AM 64.4 °F - 62.6 °F 94% 30.06 in - North - - N/A   Scattered Clouds
9:55 AM 68.0 °F - 64.4 °F 88% 30.06 in - North - - N/A   Partly Cloudy
10:55 AM 71.6 °F - 66.2 °F 83% 30.06 in - North - - N/A   Scattered Clouds
11:00 AM 72 °F - 65 °F 74% 30.07 in 5 mi West 3.5 mph - -   Mist
11:55 AM 77.0 °F - 64.4 °F 65% 30.04 in - North - - N/A   Scattered Clouds
12:55 PM 77.0 °F - 64.4 °F 65% 30.04 in - North - - N/A   Scattered Clouds
1:55 PM 80.6 °F 82.7 °F 66.2 °F 61% 30.01 in - North - - N/A   Scattered Clouds
2:00 PM 80 °F - 67 °F 55% 30.03 in 6 mi East 8.1 mph - -   Partly Cloudy
2:55 PM 78.8 °F - 64.4 °F 61% 29.98 in - North - - N/A   Scattered Clouds
3:55 PM 77.0 °F - 62.6 °F 61% 29.98 in - North - - N/A   Scattered Clouds
4:55 PM 75.2 °F - 64.4 °F 69% 30.01 in - North - - N/A   Scattered Clouds
5:00 PM 76 °F - 65 °F 60% 30.01 in 7 mi ESE 8.1 mph - -   Partly Cloudy
5:55 PM 73.4 °F - 66.2 °F 78% 30.01 in - North - - N/A   Scattered Clouds
6:55 PM 71.6 °F - 68.0 °F 88% 30.01 in - North - - N/A   Scattered Clouds
7:55 PM 69.8 °F - 68.0 °F 94% 30.01 in - North - - N/A   Scattered Clouds
8:00 PM 69 °F - 68 °F 96% 30.02 in 6 mi East 3.5 mph - -   Partly Cloudy
8:55 PM 66.2 °F - 64.4 °F 94% 30.01 in - North - - N/A   Scattered Clouds
9:55 PM 62.6 °F - 62.6 °F 100% 30.04 in - North - - N/A   Partly Cloudy
10:55 PM 62.6 °F - 62.6 °F 100% 30.04 in - North - - N/A   Partly Cloudy
11:00 PM 63 °F - 62 °F 96% 30.05 in 9 mi NNE 2.3 mph - -   Scattered Clouds
11:55 PM 62.6 °F - 62.6 °F 100% 30.04 in - North - - N/A   Partly Cloudy